TimeEDT,TemperatureF,Dew PointF,Humidity,Sea Level PressureIn,VisibilityMPH,Wind Direction,Wind SpeedMPH,Gust SpeedMPH,PrecipitationIn,Events,Conditions,WindDirDegrees,DateUTC
12:09 AM,66.2,66.2,100,30.13,2.0,Calm,Calm,-,N/A,,Overcast,0,2012-10-04 04:09:00
12:29 AM,66.2,66.2,100,30.13,2.5,Calm,Calm,-,N/A,,Overcast,0,2012-10-04 04:29:00
12:32 AM,66.2,66.2,100,30.12,1.8,Calm,Calm,-,N/A,,Overcast,0,2012-10-04 04:32:00
12:40 AM,66.2,66.2,100,30.13,1.5,Calm,Calm,-,N/A,,Overcast,0,2012-10-04 04:40:00
12:49 AM,66.2,66.2,100,30.13,2.5,Calm,Calm,-,N/A,,Overcast,0,2012-10-04 04:49:00
12:53 AM,66.9,66.0,97,30.12,2.5,Calm,Calm,-,N/A,,Overcast,0,2012-10-04 04:53:00
1:13 AM,66.2,66.2,100,30.13,2.5,Calm,Calm,-,N/A,,Overcast,0,2012-10-04 05:13:00
1:49 AM,66.2,64.4,94,30.13,1.5,Calm,Calm,-,N/A,,Overcast,0,2012-10-04 05:49:00
1:53 AM,66.9,66.0,97,30.13,1.5,Calm,Calm,-,N/A,,Overcast,0,2012-10-04 05:53:00
2:00 AM,66.2,66.2,100,30.13,1.2,Calm,Calm,-,N/A,,Overcast,0,2012-10-04 06:00:00
2:22 AM,66.2,64.4,94,30.13,1.8,Calm,Calm,-,N/A,,Overcast,0,2012-10-04 06:22:00
2:28 AM,66.2,66.2,100,30.14,2.0,Calm,Calm,-,N/A,,Overcast,0,2012-10-04 06:28:00
2:53 AM,66.9,66.0,97,30.13,3.0,Calm,Calm,-,N/A,,Overcast,0,2012-10-04 06:53:00
3:10 AM,66.2,66.2,100,30.13,2.5,Calm,Calm,-,N/A,,Overcast,0,2012-10-04 07:10:00
3:53 AM,66.9,66.0,97,30.13,3.0,Calm,Calm,-,N/A,,Overcast,0,2012-10-04 07:53:00
4:37 AM,66.2,66.2,100,30.12,2.5,Calm,Calm,-,N/A,,Overcast,0,2012-10-04 08:37:00
4:44 AM,66.2,66.2,100,30.12,3.0,Calm,Calm,-,N/A,,Overcast,0,2012-10-04 08:44:00
4:53 AM,66.9,66.0,97,30.12,3.0,Calm,Calm,-,N/A,,Overcast,0,2012-10-04 08:53:00
5:12 AM,66.2,64.4,94,30.13,2.5,Calm,Calm,-,N/A,,Overcast,0,2012-10-04 09:12:00
5:41 AM,66.2,64.4,94,30.13,1.2,Calm,Calm,-,N/A,,Overcast,0,2012-10-04 09:41:00
5:53 AM,66.0,64.9,96,30.12,1.0,Calm,Calm,-,N/A,,Overcast,0,2012-10-04 09:53:00
6:15 AM,66.2,64.4,94,30.14,1.8,Calm,Calm,-,N/A,,Overcast,0,2012-10-04 10:15:00
6:30 AM,66.2,64.4,94,30.15,0.8,Calm,Calm,-,N/A,,Overcast,0,2012-10-04 10:30:00
6:53 AM,66.0,64.9,96,30.14,0.5,Calm,Calm,-,N/A,Fog,Fog,0,2012-10-04 10:53:00
7:53 AM,66.0,64.9,96,30.14,0.2,Calm,Calm,-,N/A,Fog,Fog,0,2012-10-04 11:53:00
8:24 AM,66.2,64.4,94,30.14,1.2,Calm,Calm,-,N/A,,Overcast,0,2012-10-04 12:24:00
8:33 AM,66.2,64.4,94,30.13,2.0,Calm,Calm,-,0.00,Rain,Light Rain,0,2012-10-04 12:33:00
8:43 AM,66.2,64.4,94,30.13,4.0,Calm,Calm,-,0.00,,Overcast,0,2012-10-04 12:43:00
8:53 AM,66.0,64.9,96,30.13,3.0,Calm,Calm,-,0.00,,Overcast,0,2012-10-04 12:53:00
9:17 AM,66.2,64.4,94,30.14,4.0,Calm,Calm,-,N/A,,Overcast,0,2012-10-04 13:17:00
9:53 AM,66.9,66.0,97,30.13,4.0,East,3.5,-,0.01,Rain,Light Rain,100,2012-10-04 13:53:00
10:25 AM,68.0,66.2,94,30.14,5.0,Calm,Calm,-,0.01,Rain,Light Rain,0,2012-10-04 14:25:00
10:53 AM,69.1,66.0,90,30.11,6.0,Calm,Calm,-,0.01,,Overcast,0,2012-10-04 14:53:00
11:53 AM,71.1,68.0,90,30.11,8.0,SSW,3.5,-,0.00,,Partly Cloudy,200,2012-10-04 15:53:00
12:53 PM,72.0,68.0,87,30.10,9.0,Calm,Calm,-,N/A,,Mostly Cloudy,0,2012-10-04 16:53:00
1:04 PM,73.4,66.2,78,30.10,10.0,Calm,Calm,-,N/A,,Mostly Cloudy,0,2012-10-04 17:04:00
1:53 PM,73.9,66.9,79,30.07,10.0,Calm,Calm,-,N/A,,Mostly Cloudy,0,2012-10-04 17:53:00
2:53 PM,73.0,68.0,84,30.06,10.0,Calm,Calm,-,N/A,,Overcast,0,2012-10-04 18:53:00
3:34 PM,71.6,66.2,83,30.06,7.0,West,4.6,-,0.01,Rain-Thunderstorm,Light Rain,280,2012-10-04 19:34:00
3:53 PM,71.1,68.0,90,30.06,1.8,Calm,Calm,-,0.04,Rain-Thunderstorm,Rain,0,2012-10-04 19:53:00
4:04 PM,69.8,68.0,94,30.07,3.0,SW,3.5,-,0.02,Rain,Light Rain,220,2012-10-04 20:04:00
4:53 PM,70.0,68.0,93,30.06,7.0,Calm,Calm,-,0.03,,Overcast,0,2012-10-04 20:53:00
5:37 PM,71.6,66.2,83,30.06,10.0,NW,3.5,-,N/A,,Mostly Cloudy,310,2012-10-04 21:37:00
5:51 PM,69.8,64.4,83,30.06,10.0,Calm,Calm,-,N/A,,Mostly Cloudy,0,2012-10-04 21:51:00
6:53 PM,66.9,64.9,93,30.06,4.0,Calm,Calm,-,N/A,,Clear,0,2012-10-04 22:53:00
7:07 PM,64.4,64.4,100,30.06,1.8,Calm,Calm,-,N/A,,Clear,0,2012-10-04 23:07:00
7:13 PM,64.4,62.6,94,30.07,0.8,Calm,Calm,-,N/A,,Partly Cloudy,0,2012-10-04 23:13:00
7:38 PM,64.4,62.6,94,30.06,0.5,Calm,Calm,-,N/A,Fog,Fog,0,2012-10-04 23:38:00
7:50 PM,64.4,62.6,94,30.07,1.5,Calm,Calm,-,N/A,,Mostly Cloudy,0,2012-10-04 23:50:00
7:53 PM,64.0,63.0,96,30.06,2.5,Calm,Calm,-,N/A,,Mostly Cloudy,0,2012-10-04 23:53:00
7:56 PM,64.4,62.6,94,30.07,1.2,Calm,Calm,-,N/A,,Mostly Cloudy,0,2012-10-04 23:56:00
8:05 PM,62.6,60.8,94,30.07,0.2,Calm,Calm,-,N/A,Fog,Fog,0,2012-10-05 00:05:00
8:21 PM,62.6,60.8,94,30.07,0.2,Calm,Calm,-,N/A,Fog,Fog,0,2012-10-05 00:21:00
8:53 PM,62.1,61.0,96,30.06,0.2,Calm,Calm,-,N/A,Fog,Fog,0,2012-10-05 00:53:00
9:53 PM,60.1,60.1,100,30.08,0.2,Calm,Calm,-,0.01,Fog,Fog,0,2012-10-05 01:53:00
10:53 PM,60.1,59.0,96,30.09,0.2,Calm,Calm,-,N/A,Fog,Fog,0,2012-10-05 02:53:00
11:53 PM,59.0,57.9,96,30.07,0.2,Calm,Calm,-,N/A,Fog,Fog,0,2012-10-05 03:53:00